This is the latest recevied weather packets stored in our database for station/object N7CW. If no packets are shown the sender has not sent any weather packets the latest 10 day(s).
| Time | Temp. | Humidity | Pressure | Rain* | Wind** | Luminosity | Snow |
|---|---|---|---|---|---|---|---|
| 1777611734 | 12.22° C | 29% | 1013.1 hPa | 0 mm | - | 0 W/m² | - |
| 1777611431 | 12.78° C | 29% | 1013.3 hPa | 0 mm | - | 0 W/m² | - |
| 1777611128 | 13.89° C | 28% | 1013.1 hPa | 0 mm | - | 0 W/m² | - |
| 1777610823 | 13.89° C | 28% | 1013.3 hPa | 0 mm | - | 0 W/m² | - |
| 1777610519 | 12.22° C | 29% | 1013.4 hPa | 0 mm | - | 0 W/m² | - |
| 1777610214 | 15° C | 27% | 1013.1 hPa | 0 mm | - | 0 W/m² | - |
| 1777609911 | 15° C | 25% | 1012.7 hPa | 0 mm | - | 0 W/m² | - |
| 1777609607 | 15° C | 25% | 1012.6 hPa | 0 mm | - | 0 W/m² | - |
| 1777609304 | 15° C | 25% | 1012.7 hPa | 0 mm | - | 0 W/m² | - |
| 1777609002 | 15.56° C | 25% | 1012.7 hPa | 0 mm | - | 0 W/m² | - |
| 1777608699 | 15.56° C | 25% | 1012.7 hPa | 0 mm | - | 0 W/m² | - |
| 1777608396 | 15.56° C | 25% | 1012.6 hPa | 0 mm | - | 0 W/m² | - |
| 1777608094 | 15.56° C | 24% | 1012.6 hPa | 0 mm | - | 0 W/m² | - |
| 1777607790 | 15.56° C | 24% | 1012.6 hPa | 0 mm | - | 0 W/m² | - |
| 1777607486 | 15.56° C | 24% | 1012.5 hPa | 0 mm | - | 0 W/m² | - |
| 1777607183 | 15.56° C | 24% | 1012.4 hPa | 0 mm | - | 0 W/m² | - |
| 1777606879 | 15.56° C | 24% | 1012.6 hPa | 0 mm | - | 0 W/m² | - |
| 1777606575 | 15.56° C | 24% | 1012.4 hPa | 0 mm | - | 0 W/m² | - |
| 1777606269 | 15.56° C | 24% | 1012.6 hPa | 0 mm | - | 0 W/m² | - |
| 1777605964 | 15.56° C | 24% | 1012.5 hPa | 0 mm | - | 0 W/m² | - |
| 1777605661 | 15.56° C | 25% | 1012.5 hPa | 0 mm | - | 0 W/m² | - |
| 1777605359 | 15.56° C | 25% | 1012.2 hPa | 0 mm | - | 0 W/m² | - |
| 1777605057 | 15.56° C | 25% | 1012.2 hPa | 0 mm | - | 0 W/m² | - |
| 1777604747 | 15.56° C | 25% | 1012.2 hPa | 0 mm | - | 0 W/m² | - |
| 1777604443 | 15.56° C | 25% | 1012.2 hPa | 0 mm | - | 0 W/m² | - |
* Rain latest hour (hover to see other rain measurements)
** Current wind speed in m/s (hover to see current wind gust speed)